Location: Corte Bragagnani
(45.3000°N, 11.1000°E)
Time: 02:05:03
(UTC+00:00)

MOS 1 Rocket - Pass Details

Date: 09 April 2020
Orbit: 614 x 831 km, 97.4° (Epoch: 06 June)

Event Time Altitude Azimuth Distance (km) Brightness Sun altitude
Rises 19:15:27 0° 15° (NNE) 3,353 7.0 -14.2°
Reaches altitude 10° 19:17:50 10° 19° (NNE) 2,431 6.2 -14.6°
Maximum altitude 19:23:13 61° 100° (E) 942 3.7 -15.4°
Drops below altitude 10° 19:28:34 10° 180° (S) 2,422 5.8 -16.2°
Sets 19:30:56 0° 184° (S) 3,339 6.5 -16.6°
